Regional Weather Roundup
Issued by NWS Grand Forks, ND

Home | Current Version | Previous Version | Text Only | Print | Product List | Glossary Off
Versions: 1 2 3 4 5 6 7 8 9 10 11 12 13 14 15 16 17 18 19 20 21 22 23 24 25 26 27 28 29 30 31 32 33 34 35 36 37 38 39 40 41 42 43 44 45 46 47 48 49 50

257
ASUS43 KFGF 211931
RWRFGF
PRAIRIE TO PINES  WEATHER ROUNDUP
NATIONAL WEATHER SERVICE EASTERN NORTH DAKOTA/GRAND FORKS ND
200 PM CDT THU MAY 21 2015

 **SATELLITE DATA USED TO AUGMENT SKY COVER AT AUTOMATED STATIONS**
 *****  WEATHER ACROSS EASTERN NORTH DAKOTA  *****

CITY           SKY/WX    TMP DP  RH WIND       PRES   REMARKS
GRAND FORKS    MOSUNNY   66  36  32 N12       30.14F
GRAND FRKS AFB SUNNY     65  34  31 N9        30.15F
GRAND FRKS NWS   N/A     64 N/A N/A N9          N/A
DEVILS LAKE    SUNNY     63  34  34 SW7       30.15F
FARGO          SUNNY     67  39  35 NW13G20   30.13F
WAHPETON ARPT  CLEAR     66  32  28 N13       30.13S
$$

 ***** WEATHER ACROSS CENTRAL AND WESTERN NORTH DAKOTA  *****

CITY           SKY/WX    TMP DP  RH WIND       PRES   REMARKS
BISMARCK       SUNNY     74  36  25 W7G20     30.16F
MINOT          SUNNY     70  38  31 SE6       30.15F
JAMESTOWN      SUNNY     69  38  32 NE8       30.14F
MINOT AFB      SUNNY     73  39  30 VRB3      30.13F
GARRISON         N/A     73  36  25 CALM      30.14F
WILLISTON      SUNNY     73  31  21 S8        30.17F
DICKINSON      SUNNY     68  29  23 CALM      30.18F
HETTINGER      SUNNY     66  31  27 SE12      30.21F
$$

 *****  OTHER AIRPORT OBSERVATIONS IN OUR AREA  *****

CITY           SKY/WX    TMP DP  RH WIND       PRES   REMARKS
WALHALLA       FAIR      64  32  29 NE9       30.16F
GRAFTON AIRPOR FAIR      64  37  36 NE10G18   30.16F
VALLEY CITY AR FAIR      66  34  30 N9        30.15S
CANDO          FAIR      68  25  19 N6        30.16F
CAVALIER APRT  FAIR      64  36  34 NW8       30.16S
GWINNER        NOT AVBL
ROLLA            N/A     66  23  19 N3        30.17F
 ***** THE ABOVE OBSERVATIONS ARE NON NWS ARE NOT QUALITY
       CONTROLLED AND MAY MIS-REPORT RAIN FOR SNOW...
$$

  *****  WEATHER ACROSS NORTHERN MINNESOTA  *****

CITY           SKY/WX    TMP DP  RH WIND       PRES   REMARKS
FLAG ISLAND    SUNNY     57  30  35 NW13      30.11F
WARROAD        SUNNY     59  36  41 E8        30.13F
ROSEAU         SUNNY     64  34  32 NW12G17   30.12F
HALLOCK        SUNNY     64  36  34 N10       30.14S
THF RVR FALLS  SUNNY     64  34  32 NW10G22   30.14S
BAUDETTE       SUNNY     60  32  34 N15       30.12S
WASKISH        SUNNY     61  34  36 NW13      30.11F
CROOKSTON      SUNNY     66  34  30 N8        30.14S
STEPHEN NDAWN    N/A     64  37  36 N10         N/A
GREENBUSH NDAW   N/A     64  39  39 N9          N/A
$$
  *****  WEATHER ACROSS CENTRAL AND WEST MINNESOTA  *****

CITY           SKY/WX    TMP DP  RH WIND       PRES   REMARKS
FOSSTON        SUNNY     64  34  32 N14       30.13S
BEMIDJI        SUNNY     63  31  30 N15       30.10F
PARK RAPIDS    SUNNY     66  27  23 N15G22    30.09S
ELBOW LAKE     FAIR      66  34  31 NW15      30.11S
WADENA         SUNNY     66  34  30 NW14      30.09S
DETROIT LAKES  SUNNY     64  32  29 N8G18     30.13S
MOORHEAD       SUNNY     64  36  34 N10G18    30.14S
FERGUS FALLS   SUNNY     66  36  32 NW15      30.12F
MORRIS MN      SUNNY     72  36  26 NW13G22   30.10S
STAPLES        SUNNY     66  28  24 N10G16    30.08S
$$
  *****  WEATHER ELSEWHERE ACROSS MINNESOTA  *****

CITY           SKY/WX    TMP DP  RH WIND       PRES   REMARKS
DULUTH         SUNNY     66  31  27 N13G26    30.01S
INTRNTL FALLS  SUNNY     63  33  32 NW10G22   30.08S
ELY            SUNNY     61  25  25 NW9G16    30.02S
CLOQUET        SUNNY     66  25  20 N6G16     30.02R
WHEATON        SUNNY     66  36  32 NW9       30.13F
BRAINERD       SUNNY     65  30  27 N13G24    30.08R
HIBBING        SUNNY     65  28  24 N14G28    30.04S
ALEXANDRIA     SUNNY     66  31  27 N14G23    30.11S
SAINT CLOUD    SUNNY     69  34  27 N14G21    30.05S
MINNEAPOLIS    SUNNY     71  32  23 NW18      30.02S
$$

  *****  WEATHER ACROSS SOUTH DAKOTA  *****

CITY           SKY/WX    TMP DP  RH WIND       PRES   REMARKS
SIOUX FALLS    MOSUNNY   72  36  26 NW17G25   30.14F
BROOKINGS      SUNNY     70  37  30 NW20G25   30.15F
WATERTOWN      SUNNY     70  39  32 NW12      30.14F
HURON          SUNNY     73  33  23 W14G29    30.16F
SISSETON         N/A     70  30  22 N13G21    30.12F
ABERDEEN       SUNNY     71  40  32 VRB7      30.15F
MITCHELL       SUNNY     73  34  23 NW14G23   30.18F
PIERRE         SUNNY     67  35  30 W6        30.20F
MOBRIDGE       SUNNY     73  29  19 NW8       30.15F
RAPID CITY     SUNNY     60  29  30 SE13G20   30.21F
$$

  *****  SOME WEATHER IN NEARBY STATES *****

CITY           SKY/WX    TMP DP  RH WIND       PRES   REMARKS
GLASGOW MT     SUNNY     69  32  25 S13G21    30.15F
GREAT FALLS MT SUNNY     63  34  33 VRB5      30.02F
CHEYENNE WY    CLOUDY    46  39  76 S15       30.18F
SCOTTSBLUFF NE CLOUDY    54  40  59 SE12      30.20F
OMAHA NE       MOSUNNY   70  41  34 W12G21    30.20F
DES MOINES IA  MOSUNNY   74  37  26 NW16      30.12F
DAVENPORT IA   SUNNY     67  37  33 W13G21    30.11S
CHICAGO IL     MOSUNNY   64  35  34 W10G22    30.04F
EAU CLAIRE WI  SUNNY     71  39  31 W10       29.97S
LA CROSSE WI   SUNNY     75  35  23 W14       29.98F
$$

  *****  SOME NATIONAL WEATHER *****

CITY           SKY/WX    TMP DP  RH WIND       PRES   REMARKS
LA GUARDIA NY  PTSUNNY   60  33  36 S10       29.95F
RALEIGH NC     CLOUDY    64  60  87 N8        29.86R
ATLANTA GA     MOSUNNY   79  61  53 NW14      29.98S
NEW ORLEANS LA PTSUNNY   87  69  54 CALM      30.00F HX  91
OKLAHOMA CITY  PTSUNNY   62  46  55 E9        30.25F
ALBUQUERQUE NM CLOUDY    63  43  48 E18G29    30.13F
SALT LAKE CITY PTSUNNY   65  46  50 N9        29.93F
LOS ANGELES CA PTSUNNY   66  47  50 SW10      29.97R
BOISE ID       PTSUNNY   70  48  46 NE7       29.88F
SEATTLE WA     PTSUNNY   69  54  58 W6        29.88S
$$

*** WEATHER ACROSS MANITOBA...SASKATCHEWAN AND ONTARIO ***
                ***ONTARIO***

CITY           SKY/WX    TMP DP  RH WIND       PRES   REMARKS
GERALDTON      MOSUNNY   48  12  23 NW20G28   29.97R
THUNDER BAY    MOSUNNY   63  25  23 NW6G22    29.97S
SIOUX LOOKOUT  MOSUNNY   54  27  35 NW10G20   30.08S
TORONTO        MOSUNNY   66  30  26 SW21      29.86F
BIG TROUT LK   CLOUDY    34  19  55 N10       30.17S
PICKLE LAKE    MOSUNNY   46  12  25 N8G22     30.06S
DRYDEN         SUNNY     55  25  30 N9G20     30.08F
KENORA         MOSUNNY   57  27  30 W7G17     30.11F
$$
                *** MANITOBA***

CITY           SKY/WX    TMP DP  RH WIND       PRES   REMARKS
BRANDON        MOSUNNY   68  34  28 VRB5      30.17F
DAUPHIN        SUNNY     70  34  26 VRB5      30.13F
ISLAND LAKE    MOSUNNY   52  10  19 N8        30.17F
PILOT MOUND      N/A     64  30  27 NE3         N/A
THE PAS        MOSUNNY   72  36  26 SE13      30.07F
THOMPSON       PTSUNNY   57  25  28 S2        30.15F
WINNIPEG       SUNNY     64  39  39 NE14      30.16F
LYNN LAKE      SUNNY     64  28  25 SE13G18   30.08F
CHURCHILL      SUNNY     36  12  38 N3        30.23F
GILLAM         SUNNY     46  21  36 N5        30.20F
$$
                ***SASKATCHEWAN***

CITY           SKY/WX    TMP DP  RH WIND       PRES   REMARKS
ESTEVAN        MOSUNNY   73  27  17 E6        30.15F
KINDERSLEY     SUNNY     72  27  18 SE15G29   30.10
LLOYDMINSTER   SUNNY     72  21  15 S15G24    30.09S
PRINCE ALBERT  MOSUNNY   77  25  14 W9G20     30.09F
REGINA         MOSUNNY   73  28  19 S9        30.16F
YORKTON        SUNNY     73  34  23 VRB6      30.12F
N. BATTLEFORD  SUNNY     73  27  17 S12G22    30.13F
LA RONGE       MOSUNNY   79  27  14 S6        30.04F
SASKATOON      SUNNY     73  23  15 VRB2      30.14F
SWIFT CURRENT  NOT AVBL
$$
NOTE: THESE ARE AUTOMATED STATIONS WITH LIMITED QUALITY CONTROL
      "FAIR" INDICATES FEW OR NO CLOUDS BELOW 12,000 FEET WITH NO
      SIGNIFICANT WEATHER AND/OR OBSTRUCTIONS TO VISIBILITY.
      SKY/WX - SKY CONDITION AND SIGNIFICANT WEATHER.
      TMP - AIR TEMPERATURE.    DP   - DEWPOINT TEMPERATURE.
      RH  - RELATIVE HUMIDITY.  PRES - PRESSURE.
      HX  - HEAT INDEX.         WCI  - WIND CHILL INDEX.
$



USA.gov is the U.S. government's official web portal to all federal, state and local government web resources and services.